Flag for Gibraltar Weather past 2 weeks in Gibraltar, Gibraltar

Now
73 °F

Scattered clouds.


Feels Like: 76 °F
Forecast: 69 / 78 °F
Wind: 18 mph from West

Location: Gibraltar Airport

Current Time: Aug 1, 2014 at 6:41:34 PM

Latest Report: Aug 1, 2014 at 5:50 PM


Visibility: N/A

Pressure: 29.95 "Hg

Humidity: 61%

Dew point: 59 °F

Location of GibraltarLocation

Historic Weather in Gibraltar — Graph

°F

Gibraltar temperature yesterday

Maximum temperature yesterday: 82 °F (at 2:50 PM)
Minimum temperature yesterday: 68 °F (at 6:50 AM)
Average temperature yesterday: 74 °F

Past Weeks' High & Low Weather Summary

 TemperatureHumidityPressure
High84 °F (Jul 18, 2:50 PM)100% (Jul 22, 5:50 AM)30.09 "Hg (Jul 22, 5:50 AM)
Low64 °F (Jul 23, 6:50 AM)42% (Jul 20, 6:50 PM)29.80 "Hg (Jul 24, 4:50 PM)
Average74 °F69%29.96 "Hg
* Reported Jul 17 4:50 PM — Aug 1 4:50 PM, Gibraltar, Weather by CustomWeather, © 2014

Note: Actual official high and low records may vary slightly from our data, if they occured in-between our weather recording intervals... More about our weather records

Advertising

Gibraltar weather history for previous 24 hours

 ConditionsComfort  
Time TempWeatherWind HumidityBarometerVisibility
4:50 PM
Aug 1
73 °FScattered clouds.22 mph61%29.95 "HgN/A
3:50 PM75 °FScattered clouds.21 mph57%29.95 "HgN/A
2:50 PM75 °FScattered clouds.20 mph57%29.98 "HgN/A
1:50 PM75 °FScattered clouds.21 mph54%29.98 "HgN/A
12:50 PM73 °FScattered clouds.21 mph61%29.98 "HgN/A
11:50 AM73 °FScattered clouds.18 mph61%29.98 "HgN/A
10:50 AM72 °FPassing clouds.20 mph65%29.98 "HgN/A
9:50 AM72 °FPassing clouds.16 mph65%29.98 "HgN/A
8:50 AM70 °FScattered clouds.17 mph73%29.98 "HgN/A
7:50 AM70 °FPassing clouds.20 mph73%29.95 "HgN/A
6:50 AM70 °FPassing clouds.17 mph73%29.95 "HgN/A
5:50 AM70 °FClear.25 mph73%29.95 "HgN/A
4:50 AM70 °FClear.25 mph73%29.95 "HgN/A
3:50 AM70 °FClear.18 mph73%29.98 "HgN/A
2:50 AM70 °FClear.15 mph73%29.98 "HgN/A
1:50 AM68 °FClear.22 mph78%29.98 "HgN/A
12:50 AM70 °FClear.21 mph73%29.98 "HgN/A
11:50 PM
Jul 31
70 °FClear.24 mph73%29.98 "HgN/A
10:50 PM72 °FClear.18 mph69%29.98 "Hg10 mi
9:50 PM72 °FSunny.16 mph69%29.98 "Hg10 mi
8:50 PM73 °FSunny.16 mph65%29.95 "Hg10 mi
7:50 PM77 °FSunny.15 mph57%29.95 "Hg10 mi
6:50 PM77 °FSunny.15 mph54%29.95 "Hg10 mi
Weather by CustomWeather, © 2014

See weather overviewHow to use our weather pages